Perry, FL

1:47 PM EDT on October 23, 2017 (GMT -0400)
Perry

Weather History for K40J - November, 2013

Change the Weather History Date:

Saturday, November 2, 2013

  Actual Average (KVLD) Record (KVLD)
Temperature  
Mean Temperature 65 °F -  
Max Temperature 77 °F 74 °F 89 °F (2015)
Min Temperature 55 °F 50 °F 33 °F (1996)
Growing Degree Days 15 (Base 50)    
Moisture  
Dew Point 59 °F    
Average Humidity 78    
Maximum Humidity 100    
Minimum Humidity 38    
Precipitation  
Precipitation 0.22 in - - ()
Sea Level Pressure  
Sea Level Pressure 29.91 in    
Wind  
Wind Speed 6 mph (NNW)    
Max Wind Speed 13 mph    
Max Gust Speed 17 mph    
Visibility 10 miles    
Events Rain , Thunderstorm    
Averages and records for this station are not official NWS values.
T = Trace of Precipitation, MM = Missing Value Source: NWS Daily Summary

Daily Weather History Graph

Daily Weather History Graph

Search for Another Location

Airport or City:

Trip Planner

Search our weather history database for the weather conditions in past years. The results will help you decide how hot, cold, wet, or windy it might be!

Date:

Astronomy

Nov. 02, 2013 Rise Set
Actual Time 7:49 AM EDT 6:46 PM EDT
Civil Twilight 7:24 AM EDT 7:10 PM EDT
Nautical Twilight 6:56 AM EDT 7:39 PM EDT
Astronomical Twilight 6:28 AM EDT 8:07 PM EDT
Moon 6:48 AM EDT (11/2) 6:15 PM EDT (11/2)
Length of Visible Light 11h 46m
Length of Day
10h 56m
Waning Crescent, 1% of the Moon is Illuminated
Nov 2
Waning Crescent
Nov 3
New
Nov 10
First Quarter
Nov 17
Full
Nov 25
Last Quarter

Hourly Weather History & Observations

Time (EDT) Temp. Dew Point Humidity Pressure Visibility Wind Dir Wind Speed Gust Speed Precip Events Conditions
12:15 AM 73.4 °F 71.6 °F 94% 29.85 in 4.0 mi SW 5.8 mph - 0.01 in Rain , Thunderstorm Rain
12:35 AM 73.4 °F 71.6 °F 94% 29.84 in 7.0 mi WSW 5.8 mph - 0.01 in Thunderstorm Overcast
12:53 AM 73.0 °F 70.0 °F 90% 29.83 in - West 12.7 mph - 0.15 in   Unknown
12:55 AM 73.4 °F 71.6 °F 94% 29.85 in 3.0 mi WNW 11.5 mph 17.3 mph 0.14 in Rain Heavy Rain
1:15 AM 71.6 °F 69.8 °F 94% 29.84 in 10.0 mi NW 8.1 mph - 0.02 in Rain , Thunderstorm Light Thunderstorms and Rain
1:35 AM 71.6 °F 69.8 °F 94% 29.84 in 10.0 mi WNW 4.6 mph - 0.02 in Rain Light Rain
1:53 AM 72.0 °F 68.0 °F 87% 29.83 in - WNW 4.6 mph - 0.05 in   Unknown
1:55 AM 71.6 °F 69.8 °F 94% 29.84 in 10.0 mi WNW 4.6 mph - 0.02 in   Overcast
2:15 AM 71.6 °F 69.8 °F 94% 29.83 in 10.0 mi NNW 5.8 mph - N/A Rain Light Rain
2:35 AM 69.8 °F 69.8 °F 100% 29.84 in 10.0 mi NNW 3.5 mph - N/A   Light Drizzle
2:53 AM 71.1 °F 66.9 °F 87% 29.82 in - NW 5.8 mph - N/A   Unknown
2:55 AM 69.8 °F 68.0 °F 94% 29.83 in 10.0 mi NNW 5.8 mph - N/A Rain Rain
3:15 AM 69.8 °F 68.0 °F 94% 29.83 in 10.0 mi North 3.5 mph - 0.01 in   Light Drizzle
3:35 AM 69.8 °F 68.0 °F 94% 29.82 in 10.0 mi NNW 5.8 mph - 0.01 in   Overcast
3:53 AM 70.0 °F 66.0 °F 87% 29.82 in - Variable 4.6 mph - N/A   Unknown
3:55 AM 69.8 °F 68.0 °F 94% 29.82 in 10.0 mi North 4.6 mph - 0.01 in Rain Light Rain
4:15 AM 69.8 °F 68.0 °F 94% 29.83 in 10.0 mi NNW 9.2 mph - N/A   Overcast
4:35 AM 68.0 °F 68.0 °F 100% 29.84 in 10.0 mi NNW 5.8 mph - N/A Rain Light Rain
4:53 AM 69.1 °F 64.9 °F 87% 29.82 in - NW 5.8 mph - N/A   Unknown
4:55 AM 68.0 °F 66.2 °F 94% 29.84 in 10.0 mi NNW 5.8 mph - N/A   Overcast
5:15 AM 68.0 °F 66.2 °F 94% 29.84 in 10.0 mi NNW 4.6 mph - N/A   Overcast
5:35 AM 68.0 °F 66.2 °F 94% 29.84 in 10.0 mi NW 5.8 mph - N/A   Mostly Cloudy
5:53 AM 66.9 °F 63.0 °F 87% 29.84 in - NNW 6.9 mph - N/A   Unknown
5:55 AM 68.0 °F 64.4 °F 88% 29.85 in 10.0 mi NNW 5.8 mph - N/A   Scattered Clouds
6:15 AM 66.2 °F 62.6 °F 88% 29.86 in 10.0 mi North 5.8 mph - N/A   Clear
6:35 AM 64.4 °F 62.6 °F 94% 29.87 in 10.0 mi NNW 4.6 mph - N/A   Clear
6:53 AM 64.9 °F 62.1 °F 90% 29.88 in - WNW 3.5 mph - N/A   Unknown
6:55 AM 64.4 °F 62.6 °F 94% 29.89 in 10.0 mi NW 4.6 mph - N/A   Clear
7:15 AM 64.4 °F 62.6 °F 94% 29.90 in 10.0 mi NNW 4.6 mph - N/A   Clear
7:35 AM 64.4 °F 62.6 °F 94% 29.90 in 10.0 mi Calm Calm - N/A   Clear
7:53 AM 64.0 °F 61.0 °F 90% 29.88 in - NNW 4.6 mph - N/A   Unknown
7:55 AM 64.4 °F 62.6 °F 94% 29.90 in 10.0 mi NNW 4.6 mph - N/A   Clear
8:15 AM 64.4 °F 62.6 °F 94% 29.91 in 10.0 mi NNW 3.5 mph - N/A   Clear
8:35 AM 64.4 °F 62.6 °F 94% 29.92 in 10.0 mi NW 3.5 mph - N/A   Clear
8:53 AM 64.0 °F 60.1 °F 87% 29.91 in - NNW 4.6 mph - N/A   Unknown
8:55 AM 62.6 °F 60.8 °F 94% 29.92 in 10.0 mi NNW 3.5 mph - N/A   Clear
9:15 AM 64.4 °F 60.8 °F 88% 29.93 in 10.0 mi Calm Calm - N/A   Clear
9:35 AM 64.4 °F 60.8 °F 88% 29.94 in 10.0 mi NNW 3.5 mph - N/A   Clear
9:53 AM 66.0 °F 60.1 °F 81% 29.92 in - North 5.8 mph - N/A   Unknown
9:55 AM 64.4 °F 60.8 °F 88% 29.93 in 10.0 mi North 5.8 mph - N/A   Clear
10:15 AM 64.4 °F 60.8 °F 88% 29.94 in 10.0 mi North 4.6 mph - N/A   Clear
10:35 AM 66.2 °F 60.8 °F 83% 29.94 in 10.0 mi North 8.1 mph - N/A   Clear
10:53 AM 66.9 °F 57.0 °F 70% 29.94 in - North 8.1 mph - N/A   Unknown
10:55 AM 66.2 °F 59.0 °F 78% 29.95 in 10.0 mi North 6.9 mph - N/A   Clear
11:15 AM 66.2 °F 59.0 °F 78% 29.95 in 10.0 mi North 4.6 mph - N/A   Clear
11:35 AM 68.0 °F 59.0 °F 73% 29.95 in 10.0 mi North 6.9 mph - N/A   Clear
11:53 AM 69.1 °F 55.9 °F 63% 29.96 in - NW 5.8 mph - N/A   Unknown
11:55 AM 68.0 °F 57.2 °F 68% 29.97 in 10.0 mi NNW 4.6 mph - N/A Rain Light Rain
12:53 PM 71.1 °F 55.0 °F 57% 29.94 in - NNW 9.2 mph - N/A   Unknown
1:15 PM 71.6 °F 55.4 °F 57% 29.96 in 10.0 mi NNW 8.1 mph - N/A   Clear
1:35 PM 71.6 °F 53.6 °F 53% 29.95 in 10.0 mi NNW 4.6 mph - N/A   Clear
1:53 PM 73.9 °F 52.0 °F 46% 29.92 in - NNW 6.9 mph - 0.01 in   Unknown
1:55 PM 71.6 °F 53.6 °F 53% 29.93 in 10.0 mi NNW 6.9 mph - N/A   Clear
2:15 PM 73.4 °F 51.8 °F 47% 29.92 in 10.0 mi NNW 8.1 mph - N/A   Clear
2:35 PM 73.4 °F 51.8 °F 47% 29.91 in 10.0 mi NNE 6.9 mph - N/A   Clear
2:53 PM 75.0 °F 51.1 °F 43% 29.89 in - North 6.9 mph - N/A   Unknown
2:55 PM 73.4 °F 51.8 °F 47% 29.90 in 10.0 mi North 5.8 mph - N/A   Clear
3:15 PM 73.4 °F 50.0 °F 44% 29.90 in 10.0 mi North 9.2 mph - N/A   Clear
3:35 PM 73.4 °F 50.0 °F 44% 29.90 in 10.0 mi NW 8.1 mph - N/A   Clear
3:53 PM 75.9 °F 50.0 °F 40% 29.88 in - NNW 8.1 mph - N/A   Unknown
3:55 PM 73.4 °F 50.0 °F 44% 29.89 in 10.0 mi North 9.2 mph - N/A   Clear
4:15 PM 75.2 °F 48.2 °F 38% 29.90 in 10.0 mi NNW 10.4 mph 16.1 mph N/A   Clear
4:35 PM 75.2 °F 48.2 °F 38% 29.90 in 10.0 mi NNW 10.4 mph - N/A   Clear
4:53 PM 75.0 °F 48.0 °F 38% 29.89 in - NW 11.5 mph - N/A   Unknown
4:55 PM 73.4 °F 48.2 °F 41% 29.90 in 10.0 mi NW 10.4 mph - N/A   Clear
5:15 PM 73.4 °F 50.0 °F 44% 29.90 in 10.0 mi NW 8.1 mph - N/A   Clear
5:35 PM 73.4 °F 50.0 °F 44% 29.91 in 10.0 mi NW 5.8 mph - N/A   Clear
5:53 PM 73.0 °F 50.0 °F 44% 29.90 in - NW 4.6 mph - N/A   Unknown
5:55 PM 73.4 °F 50.0 °F 44% 29.91 in 10.0 mi NNW 4.6 mph - N/A   Clear
6:15 PM 71.6 °F 51.8 °F 50% 29.92 in 10.0 mi NW 4.6 mph - N/A   Clear
6:35 PM 69.8 °F 53.6 °F 56% 29.92 in 10.0 mi NW 4.6 mph - N/A   Clear
6:53 PM 64.9 °F 54.0 °F 68% 29.92 in - Calm Calm - N/A   Unknown
6:55 PM 64.4 °F 55.4 °F 73% 29.93 in 10.0 mi Calm Calm - N/A   Clear
7:15 PM 64.4 °F 57.2 °F 77% 29.94 in 10.0 mi Calm Calm - N/A   Clear
7:35 PM 62.6 °F 57.2 °F 82% 29.95 in 10.0 mi Calm Calm - N/A   Clear
7:53 PM 60.1 °F 55.0 °F 83% 29.95 in - Calm Calm - N/A   Unknown
7:55 PM 60.8 °F 57.2 °F 88% 29.96 in 10.0 mi Calm Calm - N/A   Clear
8:15 PM 60.8 °F 57.2 °F 88% 29.97 in 10.0 mi Calm Calm - N/A   Clear
8:35 PM 59.0 °F 55.4 °F 88% 29.98 in 10.0 mi Calm Calm - N/A   Clear
8:53 PM 57.9 °F 55.0 °F 90% 29.97 in - Calm Calm - N/A   Unknown
8:55 PM 59.0 °F 55.4 °F 88% 29.99 in 10.0 mi Calm Calm - N/A   Clear
9:15 PM 57.2 °F 55.4 °F 94% 29.99 in 10.0 mi Calm Calm - N/A   Clear
9:35 PM 55.4 °F 55.4 °F 100% 30.00 in 10.0 mi Calm Calm - N/A   Clear
9:53 PM 57.0 °F 53.1 °F 87% 29.99 in - Calm Calm - N/A   Unknown
9:55 PM 57.2 °F 55.4 °F 94% 30.00 in 10.0 mi Calm Calm - N/A   Clear
10:15 PM 55.4 °F 55.4 °F 100% 30.00 in 10.0 mi Calm Calm - N/A   Clear
10:35 PM 57.2 °F 55.4 °F 94% 30.01 in 10.0 mi Calm Calm - N/A   Clear
10:53 PM 57.0 °F 53.1 °F 87% 30.00 in - Calm Calm - N/A   Unknown
10:55 PM 55.4 °F 55.4 °F 100% 30.01 in 10.0 mi Calm Calm - N/A   Clear
11:15 PM 59.0 °F 53.6 °F 82% 30.02 in 10.0 mi NW 8.1 mph - N/A   Clear
11:35 PM 60.8 °F 51.8 °F 72% 30.02 in 10.0 mi NNW 6.9 mph - N/A   Clear
11:53 PM 59.0 °F 48.9 °F 69% 30.01 in - NW 5.8 mph - N/A   Unknown
11:55 PM 59.0 °F 51.8 °F 77% 30.02 in 10.0 mi NNW 5.8 mph - N/A   Clear